Weather in Sespel

Russia / Chuvash Republic     55°36′19″N   47°18′01″E
temp.,
°C
wind,
m/s
gust,
m/s
humid.,
%
clouds,
%
prec.,
mm/h
press.,
hPa
HPBL,
m
17 may, tue
tue1700:00+6w36955 0.0 1001122
03:00+5wsw379790 0.0 1001153
06:00+7wsw479585 0.0 1000377
09:00+9w5680100 0.1 1001814
12:00+11w3470100 0.3 10011084
15:00+11w3469100 1.5 1000915
18:00+10w2383100 1.8 1001143
21:00+8nne0189100 2.8 100111
18 may, wed
wed1800:00+7sw1191100 0.4 100123
03:00+6w249388 0.7 100189
06:00+7w478999 0.0 1001267
09:00+9wnw5791100 0.1 1002562
12:00+8n5994100 1.1 1004533
15:00+9nnw6888100 1.9 1005789
18:00+8nw5890100 0.3 1007547
21:00+6nw3792100 0.4 1008229
19 may, thu
thu1900:00+4w3694100 0.1 1009116
03:00+4wnw3695100 0.8 1009630
06:00+5nnw479398 0.6 1010689
09:00+7nw5678100 1.3 10101008
12:00+9nw456392 0.3 10101442
15:00+9w5570100 1.0 10101009
18:00+5w4694100 4.3 1011576
21:00+3wnw37967 4.4 1011143
20 may, fri
fri2000:00+2nw38936 0.0 1012150
03:000wnw499257 0.0 1012186
06:00+3nw488697 0.0 1012398
09:00+3nw5799100 0.6 1013454
12:00+4nw6885100 0.1 1014852
15:00+9nnw7106796 0.9 10131689
18:00+7nnw6107688 1.4 1014672
21:00+4nw338659 1.6 101437
21 may, sat
sat2100:00+2wnw46898 0.0 101484
03:00+1wnw358625 0.0 101371
06:00+4wnw358153 0.0 1013180
09:00+9nw346316 0.1 1011776
12:00+10nnw345596 0.8 10101481
15:00+10n435794 1.3 10091310
18:00+9nne236858 0.5 1009200
21:00+5nne117160 0.6 100910